Location: Alfortville
(48.8058°N, 2.4204°E)
Time: 11:53:14
(UTC+00:00)

UNISAT 6 - Visible Passes

Search period start: 28 March 2023 00:00
Search period end: 07 April 2023 00:00
Orbit: 602 x 680 km, 97.7° (Epoch: 27 March)

Date Brightness Start Highest point End Pass type
(mag) Time Alt. Az. Time Alt. Az. Time Alt. Az.
28 Mar ? 03:38:48 10° SE 03:42:37 30° ENE 03:46:33 10° N visible
29 Mar ? 04:02:03 10° SE 04:06:17 48° ENE 04:10:39 10° N visible
29 Mar ? 19:01:59 10° NNW 19:05:13 19° WNW 19:08:27 10° WSW visible
30 Mar ? 02:52:24 10° E 02:54:13 12° NE 02:56:04 10° NNE visible
30 Mar ? 04:25:36 10° SSE 04:30:00 82° ENE 04:34:34 10° NNW visible
30 Mar ? 19:26:50 10° NNW 19:28:42 12° NW 19:30:34 10° W visible
31 Mar ? 03:14:33 10° ESE 03:17:42 19° ENE 03:20:53 10° NNE visible
31 Mar ? 04:49:28 10° S 04:53:49 59° W 04:58:19 10° NNW visible
01 Apr ? 03:37:23 10° SE 03:41:15 30° ENE 03:45:12 10° N visible
02 Apr ? 04:00:36 10° SE 04:04:52 48° ENE 04:09:16 10° N visible
02 Apr ? 19:00:33 10° NNW 19:03:49 19° WNW 19:07:04 10° WSW visible
03 Apr ? 02:50:58 10° E 02:52:48 12° NE 02:54:39 10° NNE visible
03 Apr ? 04:24:07 10° SSE 04:28:34 81° ENE 04:33:10 10° NNW visible
03 Apr ? 19:25:19 10° NNW 19:27:16 13° NW 19:29:13 10° W visible
04 Apr ? 03:13:05 10° ESE 03:16:14 19° ENE 03:19:27 10° NNE visible
04 Apr ? 04:47:56 10° S 04:52:21 60° W 04:56:54 10° NNW visible
05 Apr ? 03:35:53 10° SE 03:39:46 29° ENE 03:43:45 10° N visible
06 Apr ? 03:59:03 10° SE 04:03:21 47° ENE 04:07:47 10° N visible
06 Apr ? 18:59:01 10° NNW 19:02:19 19° WNW 19:05:36 10° WSW visible
